• In Czech Republic
  • List of Countries
  • For 7 days
  • Water Temperature
  • Satellite Maps
  • Weather Map
  • Weather Widgets
  • user-avatar
    Login

    Hourly Weather Borodyanka

    Today, 17 January, Wednesday

    Time Temperature Precipitation Wind Pressure Humidity
    00:00 -9°C° 0 mm 6 mps 743 mmHg 83%
    01:00 -9°C° 0 mm 6 mps 742 mmHg 84%
    02:00 -9°C° 0 mm 6 mps 741 mmHg 86%
    03:00 -8°C° 0 mm 6 mps 740 mmHg 87%
    04:00 -8°C° 0 mm 6 mps 739 mmHg 87%
    05:00 -6°C° 0 mm 6 mps 738 mmHg 88%
    06:00 -6°C° 0.4 mm 6 mps 738 mmHg 90%
    07:00 -5°C° 0.4 mm 6 mps 737 mmHg 91%
    08:00 -5°C° 0.4 mm 6 mps 737 mmHg 93%
    09:00 -5°C° 0.4 mm 6 mps 736 mmHg 90%
    10:00 -5°C° 0.4 mm 6 mps 736 mmHg 88%
    11:00 -5°C° 0.4 mm 6 mps 736 mmHg 86%
    12:00 -5°C° 0 mm 5 mps 735 mmHg 85%
    13:00 -4°C° 0 mm 5 mps 735 mmHg 84%
    14:00 -3°C° 0 mm 4 mps 735 mmHg 84%
    15:00 -4°C° 0 mm 4 mps 735 mmHg 86%
    16:00 -4°C° 0 mm 3 mps 735 mmHg 88%
    17:00 -4°C° 0 mm 3 mps 735 mmHg 91%
    18:00 -3°C° 0.1 mm 2 mps 735 mmHg 92%
    19:00 -4°C° 0.1 mm 2 mps 735 mmHg 93%
    20:00 -2°C° 0.1 mm 1 mps 734 mmHg 95%
    21:00 -1°C° 0.3 mm 1 mps 734 mmHg 95%
    22:00 -3°C° 0.3 mm 2 mps 734 mmHg 95%
    23:00 -3°C° 0.3 mm 2 mps 733 mmHg 95%

    Tomorrow, 18 January, Thursday

    Time Temperature Precipitation Wind Pressure Humidity
    00:00 -3°C° 0.4 mm 2 mps 733 mmHg 95%
    01:00 -4°C° 0.4 mm 3 mps 733 mmHg 95%
    02:00 -4°C° 0.4 mm 3 mps 733 mmHg 95%
    03:00 -4°C° 0.7 mm 4 mps 732 mmHg 94%
    04:00 -5°C° 0.7 mm 5 mps 732 mmHg 94%
    05:00 -4°C° 0.7 mm 6 mps 732 mmHg 93%
    06:00 -5°C° 0.9 mm 6 mps 732 mmHg 92%
    07:00 -5°C° 0.9 mm 6 mps 732 mmHg 91%
    08:00 -6°C° 0.9 mm 7 mps 733 mmHg 90%
    09:00 -4°C° 0.7 mm 7 mps 733 mmHg 89%
    10:00 -4°C° 0.7 mm 7 mps 733 mmHg 87%
    11:00 -4°C° 0.7 mm 7 mps 734 mmHg 86%
    12:00 -4°C° 0.5 mm 7 mps 734 mmHg 86%
    13:00 -4°C° 0.5 mm 7 mps 734 mmHg 85%
    14:00 -4°C° 0.5 mm 7 mps 734 mmHg 85%
    15:00 -4°C° 0.5 mm 7 mps 735 mmHg 86%
    16:00 -4°C° 0.5 mm 7 mps 735 mmHg 87%
    17:00 -6°C° 0.5 mm 7 mps 736 mmHg 88%
    18:00 -6°C° 0.2 mm 7 mps 736 mmHg 88%
    19:00 -6°C° 0.2 mm 7 mps 737 mmHg 89%
    20:00 -5°C° 0.2 mm 6 mps 737 mmHg 89%
    21:00 -5°C° 0.1 mm 6 mps 737 mmHg 90%
    22:00 -5°C° 0.1 mm 5 mps 738 mmHg 90%
    23:00 -6°C° 0.1 mm 5 mps 738 mmHg 91%

    Day after tomorrow, 19 January, Friday

    Time Temperature Precipitation Wind Pressure Humidity
    00:00 -5°C° 0 mm 4 mps 738 mmHg 92%
    01:00 -5°C° 0 mm 4 mps 738 mmHg 93%
    02:00 -6°C° 0 mm 3 mps 738 mmHg 94%
    03:00 -5°C° 0 mm 2 mps 738 mmHg 95%
    04:00 -6°C° 0 mm 2 mps 737 mmHg 95%
    05:00 -4°C° 0 mm 1 mps 737 mmHg 95%
    06:00 -6°C° 0 mm 2 mps 737 mmHg 94%
    07:00 -6°C° 0 mm 2 mps 737 mmHg 93%
    08:00 -7°C° 0 mm 3 mps 736 mmHg 92%
    09:00 -6°C° 0.2 mm 3 mps 736 mmHg 91%
    10:00 -5°C° 0.2 mm 4 mps 736 mmHg 90%
    11:00 -5°C° 0.2 mm 5 mps 736 mmHg 90%
    12:00 -3°C° 0.5 mm 4 mps 736 mmHg 90%
    13:00 -3°C° 0.5 mm 4 mps 736 mmHg 90%
    14:00 -2°C° 0.5 mm 4 mps 735 mmHg 90%
    15:00 -2°C° 0.1 mm 4 mps 736 mmHg 90%
    16:00 -2°C° 0.1 mm 4 mps 736 mmHg 89%
    17:00 -2°C° 0.1 mm 4 mps 736 mmHg 88%
    18:00 -2°C° 0.1 mm 4 mps 736 mmHg 87%
    19:00 -2°C° 0.1 mm 5 mps 736 mmHg 85%
    20:00 -2°C° 0.1 mm 5 mps 737 mmHg 84%
    21:00 -4°C° 0 mm 5 mps 737 mmHg 84%
    22:00 -4°C° 0 mm 5 mps 737 mmHg 84%
    23:00 -5°C° 0 mm 5 mps 738 mmHg 84%

    20 January, Saturday

    Time Temperature Precipitation Wind Pressure Humidity
    00:00 -5°C° 0 mm 6 mps 738 mmHg 83%
    01:00 -4°C° 0 mm 6 mps 739 mmHg 82%
    02:00 -4°C° 0 mm 7 mps 740 mmHg 81%
    03:00 -5°C° 0 mm 6 mps 740 mmHg 82%
    04:00 -5°C° 0 mm 6 mps 741 mmHg 82%
    05:00 -6°C° 0 mm 5 mps 741 mmHg 83%
    06:00 -6°C° 0 mm 5 mps 742 mmHg 84%
    07:00 -7°C° 0 mm 5 mps 742 mmHg 85%
    08:00 -7°C° 0 mm 4 mps 743 mmHg 86%
    09:00 -7°C° 0 mm 4 mps 743 mmHg 86%
    10:00 -5°C° 0 mm 4 mps 744 mmHg 85%
    11:00 -4°C° 0 mm 4 mps 744 mmHg 85%
    12:00 -4°C° 0 mm 4 mps 744 mmHg 85%
    13:00 -4°C° 0 mm 3 mps 744 mmHg 85%
    14:00 -4°C° 0 mm 3 mps 744 mmHg 85%
    15:00 -3°C° 0 mm 2 mps 744 mmHg 86%
    16:00 -4°C° 0 mm 2 mps 745 mmHg 87%
    17:00 -3°C° 0 mm 1 mps 745 mmHg 88%
    18:00 -3°C° 0 mm 1 mps 745 mmHg 88%
    19:00 -3°C° 0 mm 1 mps 745 mmHg 89%
    20:00 -5°C° 0 mm 0 mps 745 mmHg 89%
    21:00 -4°C° 0 mm 1 mps 745 mmHg 90%
    22:00 -4°C° 0 mm 1 mps 744 mmHg 90%
    23:00 -4°C° 0 mm 1 mps 744 mmHg 90%

    21 January, Sunday

    Time Temperature Precipitation Wind Pressure Humidity
    00:00 -4°C° 0 mm 1 mps 744 mmHg 91%
    01:00 -6°C° 0 mm 2 mps 744 mmHg 91%
    02:00 -6°C° 0 mm 2 mps 744 mmHg 92%
    03:00 -6°C° 0 mm 2 mps 744 mmHg 92%
    04:00 -6°C° 0 mm 2 mps 744 mmHg 93%
    05:00 -7°C° 0 mm 2 mps 744 mmHg 93%
    06:00 -7°C° 0 mm 2 mps 744 mmHg 94%
    07:00 -8°C° 0 mm 3 mps 744 mmHg 94%
    08:00 -9°C° 0 mm 3 mps 744 mmHg 94%
    09:00 -8°C° 0 mm 3 mps 744 mmHg 93%
    10:00 -7°C° 0 mm 3 mps 744 mmHg 91%
    11:00 -8°C° 0 mm 4 mps 744 mmHg 89%
    12:00 -7°C° 0 mm 4 mps 744 mmHg 88%
    13:00 -7°C° 0 mm 4 mps 744 mmHg 86%
    14:00 -5°C° 0 mm 4 mps 745 mmHg 85%
    15:00 -7°C° 0 mm 4 mps 745 mmHg 86%
    16:00 -7°C° 0 mm 3 mps 746 mmHg 87%
    17:00 -7°C° 0 mm 3 mps 746 mmHg 89%
    18:00 -8°C° 0 mm 3 mps 747 mmHg 89%
    19:00 -8°C° 0 mm 3 mps 747 mmHg 90%
    20:00 -7°C° 0 mm 2 mps 748 mmHg 91%
    21:00 -8°C° 0 mm 2 mps 748 mmHg 91%
    22:00 -8°C° 0 mm 2 mps 748 mmHg 92%
    23:00 -8°C° 0 mm 2 mps 749 mmHg 92%

    22 January, Monday

    Time Temperature Precipitation Wind Pressure Humidity
    00:00 -8°C° 0 mm 2 mps 749 mmHg 93%
    01:00 -8°C° 0 mm 2 mps 750 mmHg 93%
    02:00 -8°C° 0 mm 2 mps 750 mmHg 94%
    03:00 -8°C° 0 mm 2 mps 750 mmHg 94%
    04:00 -8°C° 0 mm 2 mps 750 mmHg 95%
    05:00 -9°C° 0 mm 2 mps 750 mmHg 95%
    06:00 -8°C° 0 mm 2 mps 751 mmHg 95%
    07:00 -8°C° 0 mm 2 mps 751 mmHg 96%
    08:00 -8°C° 0 mm 2 mps 751 mmHg 96%
    09:00 -7°C° 0 mm 2 mps 752 mmHg 95%
    10:00 -7°C° 0 mm 2 mps 752 mmHg 94%
    11:00 -6°C° 0 mm 2 mps 752 mmHg 93%
    12:00 -5°C° 0 mm 2 mps 752 mmHg 92%
    13:00 -5°C° 0 mm 2 mps 753 mmHg 91%
    14:00 -5°C° 0 mm 2 mps 753 mmHg 90%
    15:00 -5°C° 0 mm 2 mps 753 mmHg 90%
    16:00 -6°C° 0 mm 2 mps 753 mmHg 91%
    17:00 -6°C° 0 mm 1 mps 753 mmHg 92%
    18:00 -6°C° 0 mm 1 mps 754 mmHg 92%
    19:00 -7°C° 0 mm 1 mps 754 mmHg 92%
    20:00 -7°C° 0 mm 1 mps 754 mmHg 92%
    21:00 -7°C° 0 mm 1 mps 755 mmHg 93%
    22:00 -8°C° 0 mm 1 mps 755 mmHg 93%
    23:00 -8°C° 0 mm 1 mps 755 mmHg 93%
    Show more